Wind_Speed
19 19 19 21 22 23 24 24 25 26 26 26 25 25 26 27 28 29 29 28 26 25 28 28 27 27 28 27 27 27 26 22 21 24 26 26 27 25 18 18 16 23 28 22 16 15 4
20 22 24 24 24 25 25 26 27 29 29 29 29 31 31 30 31 32 33 34 33 30 27 28 28 27 28 29 29 30 30 27 24 23 23 25 29 32 28 23 20 24 25 23 19 14 16
25 26 27 26 27 27 29 30 30 30 30 32 32 33 31 32 34 36 37 38 38 36 34 30 29 27 27 29 29 30 30 29 28 26 24 29 28 27 29 26 30 25 14 7 16 19 18
27 27 28 28 29 30 32 33 34 33 32 33 34 32 30 30 31 35 41 42 43 41 37 36 32 30 30 28 28 29 27 28 29 29 32 28 27 28 28 30 30 25 18 8 6 14 18
29 30 30 30 30 32 34 35 35 35 35 34 33 31 30 30 31 33 35 39 44 44 42 38 37 35 33 30 30 31 29 28 28 30 35 32 27 25 27 26 25 24 22 18 12 17 20
30 30 31 31 31 33 34 35 34 36 36 33 32 31 31 31 32 36 38 39 37 42 43 43 39 38 37 34 32 30 31 30 30 31 32 31 29 27 23 21 21 19 21 25 22 18 25
33 33 34 33 33 34 36 37 37 37 37 36 33 34 33 33 33 36 38 41 42 42 41 42 42 41 38 36 33 33 31 31 32 32 30 27 28 26 26 23 23 23 24 28 26 25 21
35 35 34 35 35 37 38 37 37 38 37 37 37 36 34 30 31 37 40 41 41 41 38 40 41 42 41 37 36 36 35 33 32 31 32 31 25 25 29 28 27 25 24 25 29 29 23
33 34 35 36 38 39 40 37 37 37 37 38 38 36 34 30 30 32 37 37 35 32 31 37 37 38 38 41 39 39 38 37 35 34 32 31 27 27 28 31 32 28 21 25 30 32 31
32 34 37 38 41 41 39 36 35 36 38 37 35 33 30 28 27 27 26 27 26 27 28 34 35 35 37 39 40 39 38 38 39 37 35 33 29 32 31 28 31 30 21 26 31 33 32
32 33 36 42 41 40 35 35 36 36 36 35 32 28 25 24 24 21 19 17 20 23 24 28 32 34 34 35 36 38 37 38 39 41 38 35 33 32 32 28 29 25 31 33 38 35 33
32 34 39 41 41 36 34 34 34 34 34 32 28 22 22 20 17 15 13 10 16 18 18 19 24 29 29 32 34 36 37 37 39 40 41 39 35 33 31 32 32 32 33 37 40 40 38
34 37 41 38 39 36 35 34 33 33 30 26 23 20 18 15 11 9 9 9 17 22 22 22 22 23 27 30 29 31 33 36 39 39 40 40 38 35 35 33 33 35 35 34 38 41 40
37 40 40 37 36 35 35 33 32 29 26 19 21 19 16 11 8 6 8 13 23 25 27 25 25 25 26 29 28 30 34 37 38 39 39 40 39 39 38 36 34 35 36 36 36 38 41
34 37 35 34 33 34 34 33 30 27 24 17 17 18 18 11 9 8 9 20 23 29 24 24 25 22 25 28 25 27 29 33 36 37 38 40 38 40 41 40 36 35 36 35 39 40 43
37 38 34 32 32 33 34 33 29 24 22 18 16 17 16 15 12 12 12 17 21 21 20 21 21 18 17 19 21 23 27 30 31 33 36 37 38 40 41 42 41 39 39 40 39 42 42
41 36 28 30 31 33 33 31 29 25 20 15 12 14 13 13 14 13 3 18 15 16 15 16 16 14 11 9 11 19 22 24 26 28 31 32 33 35 40 42 42 43 42 44 42 42 41
37 28 27 29 30 32 32 31 29 25 17 13 10 11 13 12 11 7 4 3 20 17 16 18 18 18 17 17 16 17 18 22 17 18 24 28 27 26 35 40 42 44 44 45 46 48 46
30 21 25 27 30 32 32 31 30 25 13 12 9 10 9 10 10 8 5 5 0 3 14 16 15 14 16 18 19 17 13 15 16 18 21 23 26 32 37 38 42 44 46 46 47 48 47
24 20 23 26 29 31 32 31 29 19 16 11 7 8 9 8 9 9 6 6 4 1 2 8 12 13 14 17 17 16 13 10 9 10 13 16 21 28 41 44 42 41 44 46 48 50 49
20 20 20 25 29 32 32 34 28 15 17 14 10 8 9 9 8 9 10 9 6 3 2 3 6 8 9 12 14 13 12 13 14 17 19 20 21 20 26 46 47 45 46 47 49 51 50
16 17 19 25 28 31 34 31 25 16 15 15 13 12 10 8 8 10 10 12 12 10 8 6 8 11 15 17 18 19 18 17 16 20 24 23 25 24 23 25 43 52 49 52 54 55 53
15 15 19 23 26 29 31 26 25 18 16 16 16 15 13 11 8 8 10 10 11 12 13 13 14 14 15 19 21 23 23 22 21 24 25 27 28 28 28 25 24 34 55 58 59 61 59
14 13 19 22 23 27 27 22 21 20 18 18 18 16 16 13 12 13 11 10 10 9 10 11 13 16 16 18 22 26 28 27 25 26 26 26 29 31 32 34 34 37 37 45 68 66 67
14 12 17 20 21 23 23 21 18 17 18 17 17 18 16 14 12 13 13 13 13 12 11 9 12 14 13 15 18 23 24 25 23 25 28 29 30 34 35 35 35 39 41 43 41 72 71
13 12 16 18 18 20 21 19 17 16 17 17 16 16 15 13 14 15 14 13 15 16 11 8 8 7 6 8 9 11 15 16 19 20 21 20 23 26 29 32 35 31 35 40 43 45 73
11 10 14 16 16 17 17 18 17 16 15 16 16 16 15 14 14 14 14 15 15 16 15 11 8 7 4 2 2 4 7 11 11 12 13 16 18 23 26 29 32 31 32 37 41 40 50
13 10 11 14 15 14 15 16 15 15 14 13 14 16 17 16 14 14 14 15 12 12 12 12 13 13 11 9 7 5 6 7 8 10 12 13 14 13 16 24 27 25 28 35 37 35 33
11 10 9 13 14 15 14 15 15 14 13 12 12 12 14 14 14 12 11 12 11 7 7 7 8 10 9 8 5 3 3 3 4 4 5 6 6 8 11 16 16 16 21 28 31 34 38
Wind_Direction
319 320 319 318 315 314 313 310 309 307 306 302 296 289 285 280 274 272 270 268 265 259 256 251 241 233 229 229 226 226 229 221 220 221 218 218 218 222 215 216 219 232 238 234 215 203 221
321 320 319 319 319 316 313 311 310 308 305 303 300 298 293 286 278 268 266 263 261 260 254 252 247 238 229 228 227 222 224 224 220 223 221 216 216 217 217 210 212 231 239 238 232 222 241
321 318 316 316 316 314 313 311 309 306 304 304 302 299 294 287 275 269 261 257 254 251 254 248 245 240 234 228 229 226 222 223 221 220 220 219 219 219 222 222 223 233 249 245 236 233 242
323 323 320 316 313 313 314 314 312 310 309 307 305 300 294 286 276 270 263 258 255 251 243 245 240 237 234 228 228 231 223 222 222 219 223 224 218 219 221 225 227 233 242 234 208 219 218
318 318 318 316 315 315 316 316 313 311 312 311 307 300 292 287 277 275 269 261 258 254 248 239 238 235 234 228 226 228 224 222 221 220 222 222 220 221 224 225 230 229 236 239 221 208 200
316 319 319 318 317 317 317 316 315 314 312 310 306 302 298 290 281 273 269 264 259 254 248 245 237 233 231 228 224 225 228 221 222 226 225 224 221 224 224 222 226 223 224 236 229 221 203
322 323 323 320 318 317 319 317 318 316 316 312 308 305 303 297 288 276 268 261 255 253 245 240 242 235 230 230 230 225 223 224 223 224 226 224 222 221 222 216 214 211 214 217 232 227 214
327 326 325 321 319 319 321 320 317 318 318 316 315 315 312 299 277 266 260 255 251 249 243 233 234 240 231 228 226 226 226 224 222 223 226 224 219 218 219 218 217 213 211 212 215 227 223
327 326 325 325 325 320 321 321 322 323 322 322 322 318 313 300 284 273 266 263 249 242 238 232 226 227 229 231 228 225 224 225 224 224 224 224 218 220 219 217 218 215 210 212 209 219 225
327 327 328 330 329 324 323 324 325 326 326 326 325 317 309 301 292 288 281 269 247 233 225 225 225 222 222 226 229 227 224 225 226 225 225 224 221 223 222 220 220 220 199 208 216 224 225
330 333 334 333 330 324 326 328 331 331 330 332 327 319 310 307 299 294 280 275 237 221 214 216 217 221 218 219 221 224 224 223 222 225 224 224 223 222 223 222 221 218 207 200 211 226 230
337 338 337 336 329 327 331 332 333 336 335 333 326 321 314 307 296 295 282 270 205 190 191 206 210 214 216 216 219 219 219 223 222 221 224 224 225 224 223 226 222 217 219 210 212 224 232
335 334 335 335 331 333 334 337 341 338 333 332 332 326 324 314 302 289 282 222 174 169 171 175 179 194 207 212 215 217 216 219 222 219 220 220 225 224 224 225 225 226 224 224 221 225 234
333 334 334 334 332 337 339 344 344 339 333 332 342 338 333 320 285 277 254 193 178 175 171 177 176 183 186 195 205 210 217 220 222 221 221 219 221 224 226 225 229 229 228 227 228 232 230
339 332 333 333 336 341 343 346 347 340 335 331 337 355 357 346 317 296 243 181 186 170 174 178 183 183 196 201 203 199 209 221 223 225 223 220 222 224 227 228 227 225 230 230 227 231 231
345 340 335 336 341 344 344 345 346 343 334 331 340 355 7 20 14 359 205 180 196 193 188 180 187 202 212 215 219 225 221 220 220 225 224 223 221 224 225 226 226 225 228 227 228 230 233
346 340 335 340 346 346 347 345 345 345 336 336 338 351 4 16 30 49 68 201 211 217 219 203 192 193 209 229 220 223 219 229 233 228 228 229 223 221 225 225 227 226 226 230 230 229 232
344 338 340 344 349 350 347 347 350 345 339 342 350 353 354 11 18 50 57 238 225 237 245 247 229 226 228 232 240 235 220 214 209 209 220 225 221 216 223 226 226 229 229 231 232 232 233
344 336 343 348 354 350 349 349 354 350 349 356 351 352 1 18 29 24 12 27 349 244 223 249 252 244 238 245 245 235 221 212 212 211 208 205 209 199 210 220 228 227 229 230 232 235 235
342 338 348 352 355 352 352 355 356 354 359 352 356 346 340 329 6 22 18 5 359 52 171 213 236 240 231 232 240 246 247 229 208 219 230 229 225 217 210 213 217 220 226 228 232 234 235
336 341 355 355 355 355 354 358 354 357 9 7 358 340 325 332 326 335 338 356 336 319 268 260 234 224 197 204 221 230 230 231 231 228 228 237 239 230 222 222 220 222 224 226 227 230 230
334 345 354 352 356 357 358 3 5 17 18 9 355 16 5 312 312 321 316 303 321 317 310 277 252 237 232 223 229 235 238 249 260 264 258 252 252 247 248 236 228 229 227 231 230 230 228
333 348 354 356 359 1 2 10 16 20 16 11 12 13 9 6 5 354 354 341 327 318 305 294 284 269 250 243 238 236 242 250 258 265 258 250 246 251 255 246 245 235 231 229 232 234 232
333 348 357 1 2 7 2 6 12 25 31 30 28 27 32 30 40 33 13 357 348 327 311 299 288 279 266 250 241 241 244 250 258 263 258 253 253 255 255 255 256 255 249 240 230 233 234
325 342 352 2 5 10 5 9 12 15 18 20 23 26 34 35 36 30 24 20 9 351 334 318 301 294 269 254 251 245 244 241 256 262 259 255 255 261 259 258 259 258 254 253 249 232 232
314 331 349 359 7 9 7 9 14 12 12 14 19 23 28 29 30 24 23 32 24 16 8 352 337 325 280 253 244 238 236 247 259 262 265 262 262 261 262 262 260 258 258 260 261 251 233
301 320 345 353 8 8 7 6 17 21 21 22 17 22 30 37 32 29 29 27 28 15 20 22 22 26 41 12 280 243 249 261 274 272 270 275 272 266 269 270 266 262 257 260 263 263 246
285 302 335 348 1 5 4 0 11 22 27 31 29 30 30 34 31 28 27 24 27 33 32 41 39 39 44 46 35 359 317 299 299 297 295 288 285 283 279 280 280 269 258 255 260 265 260
259 280 322 341 349 358 360 357 2 358 355 3 14 15 7 5 7 359 2 13 5 12 4 11 9 11 20 34 42 43 20 347 322 308 314 307 322 314 302 299 302 289 270 262 259 257 258
Height
5867 5864 5860 5857 5854 5851 5848 5846 5843 5840 5838 5836 5834 5832 5831 5830 5830 5829 5830 5831 5831 5832 5833 5834 5836 5837 5839 5840 5842 5844 5845 5848 5850 5852 5854 5858 5861 5863 5868 5868 5871 5870 5869 5877 5882 5886 5885
5863 5859 5856 5853 5849 5845 5842 5839 5836 5833 5831 5828 5827 5825 5823 5821 5820 5820 5820 5822 5823 5825 5827 5828 5830 5831 5833 5834 5835 5838 5840 5844 5847 5848 5851 5854 5854 5856 5860 5864 5868 5865 5867 5875 5881 5886 5886
5860 5855 5852 5848 5844 5840 5836 5833 5830 5827 5824 5821 5819 5816 5813 5811 5810 5810 5809 5811 5812 5814 5818 5821 5823 5825 5827 5829 5829 5831 5835 5838 5841 5844 5845 5845 5851 5854 5857 5862 5860 5863 5869 5874 5878 5881 5883
5855 5851 5847 5843 5839 5835 5831 5827 5823 5819 5816 5813 5809 5806 5803 5801 5800 5799 5799 5800 5802 5804 5807 5812 5815 5818 5819 5824 5825 5825 5830 5832 5835 5838 5838 5842 5846 5849 5852 5856 5859 5863 5867 5872 5875 5875 5879
5850 5845 5841 5837 5833 5829 5825 5820 5816 5811 5806 5802 5799 5796 5794 5791 5790 5789 5787 5789 5791 5794 5797 5801 5805 5809 5812 5817 5818 5820 5823 5826 5829 5831 5832 5837 5843 5846 5849 5853 5857 5860 5862 5866 5872 5871 5873
5843 5839 5834 5829 5825 5821 5816 5811 5806 5802 5797 5793 5789 5786 5784 5782 5780 5778 5778 5778 5779 5783 5787 5791 5794 5800 5804 5808 5811 5814 5816 5820 5822 5825 5828 5834 5839 5843 5846 5850 5854 5856 5860 5860 5866 5869 5869
5840 5835 5830 5824 5819 5813 5808 5802 5797 5792 5787 5783 5779 5776 5773 5770 5769 5766 5766 5766 5769 5772 5775 5779 5785 5789 5795 5799 5805 5808 5811 5813 5817 5820 5824 5829 5834 5840 5843 5846 5847 5851 5855 5858 5859 5863 5869
5836 5830 5824 5818 5812 5807 5801 5794 5789 5783 5778 5773 5768 5764 5760 5757 5754 5751 5750 5749 5754 5760 5763 5766 5772 5779 5785 5791 5795 5799 5805 5808 5812 5815 5818 5824 5830 5834 5836 5841 5843 5846 5850 5854 5855 5855 5862
5830 5823 5817 5811 5805 5800 5792 5785 5780 5774 5767 5762 5757 5752 5747 5745 5743 5739 5738 5737 5741 5747 5753 5757 5761 5767 5774 5781 5785 5790 5797 5801 5805 5809 5813 5818 5825 5827 5830 5834 5838 5842 5849 5849 5850 5850 5854
5822 5816 5811 5805 5799 5793 5785 5778 5771 5765 5759 5753 5747 5743 5738 5736 5735 5730 5728 5727 5730 5735 5741 5747 5752 5756 5765 5769 5777 5783 5788 5795 5799 5802 5807 5812 5817 5820 5825 5830 5834 5839 5846 5845 5845 5847 5851
5816 5810 5804 5799 5792 5786 5778 5771 5763 5757 5751 5745 5740 5736 5732 5729 5728 5724 5723 5721 5723 5727 5733 5739 5744 5749 5755 5761 5768 5774 5779 5785 5790 5794 5802 5807 5810 5815 5820 5826 5829 5837 5840 5842 5842 5843 5847
5811 5805 5799 5792 5786 5780 5772 5765 5757 5749 5744 5738 5735 5731 5728 5725 5722 5720 5718 5717 5719 5723 5727 5733 5738 5743 5749 5754 5760 5766 5771 5777 5783 5788 5795 5800 5804 5810 5816 5818 5824 5826 5831 5836 5837 5839 5841
5807 5801 5794 5787 5781 5775 5768 5760 5752 5745 5740 5735 5731 5727 5723 5721 5718 5716 5714 5714 5717 5719 5724 5728 5732 5737 5743 5749 5752 5758 5763 5769 5774 5781 5787 5793 5798 5803 5807 5812 5816 5821 5825 5831 5835 5835 5838
5803 5797 5789 5782 5776 5769 5763 5756 5749 5741 5736 5733 5729 5724 5720 5718 5715 5713 5712 5713 5714 5718 5721 5725 5729 5732 5736 5741 5746 5749 5755 5761 5768 5774 5781 5788 5793 5796 5800 5806 5810 5814 5818 5824 5829 5831 5834
5796 5791 5784 5777 5771 5765 5758 5752 5746 5739 5734 5732 5728 5724 5720 5716 5714 5713 5713 5712 5715 5717 5721 5724 5726 5730 5734 5738 5741 5745 5749 5756 5763 5770 5776 5781 5786 5789 5793 5798 5803 5807 5811 5818 5821 5823 5827
5793 5787 5782 5775 5767 5762 5755 5749 5744 5737 5732 5730 5727 5724 5721 5717 5715 5715 5716 5718 5719 5720 5722 5725 5727 5731 5734 5737 5740 5743 5747 5750 5757 5763 5767 5773 5780 5782 5784 5788 5792 5796 5801 5807 5811 5815 5819
5790 5784 5778 5771 5765 5760 5753 5748 5742 5736 5732 5728 5726 5724 5722 5720 5718 5718 5720 5720 5721 5722 5723 5726 5727 5730 5732 5734 5737 5739 5743 5748 5753 5758 5762 5767 5772 5776 5776 5778 5782 5788 5790 5796 5804 5807 5810
5785 5780 5775 5770 5763 5758 5752 5746 5740 5735 5731 5728 5726 5725 5723 5722 5720 5718 5720 5721 5721 5723 5723 5724 5726 5728 5729 5731 5733 5734 5738 5742 5746 5750 5755 5759 5765 5767 5768 5769 5774 5778 5783 5788 5792 5797 5802
5783 5778 5774 5769 5763 5757 5751 5745 5739 5734 5730 5727 5726 5725 5724 5723 5721 5719 5717 5718 5718 5719 5720 5720 5720 5723 5725 5726 5729 5730 5734 5738 5741 5744 5747 5750 5753 5756 5758 5763 5766 5770 5774 5780 5784 5787 5794
5782 5777 5773 5769 5763 5757 5751 5744 5738 5733 5730 5728 5727 5725 5723 5723 5722 5720 5719 5718 5718 5718 5718 5718 5719 5720 5722 5723 5724 5726 5730 5733 5736 5738 5741 5743 5747 5750 5752 5753 5756 5761 5765 5770 5775 5780 5784
5782 5778 5773 5769 5763 5756 5750 5744 5738 5734 5730 5728 5726 5725 5723 5722 5721 5720 5719 5719 5718 5718 5717 5718 5718 5719 5720 5721 5722 5724 5726 5728 5731 5732 5734 5736 5739 5743 5746 5749 5752 5755 5757 5760 5763 5768 5775
5782 5777 5773 5769 5763 5757 5750 5745 5739 5734 5732 5730 5727 5725 5722 5721 5720 5720 5719 5718 5718 5717 5717 5717 5718 5718 5718 5720 5721 5721 5723 5724 5727 5728 5729 5731 5733 5735 5739 5744 5747 5751 5753 5753 5754 5756 5764
5781 5777 5773 5768 5763 5758 5751 5747 5742 5737 5733 5731 5728 5725 5723 5721 5720 5720 5718 5717 5716 5714 5713 5712 5713 5713 5714 5715 5716 5717 5718 5719 5720 5721 5722 5724 5725 5728 5731 5734 5739 5742 5740 5741 5741 5745 5753
5780 5777 5774 5768 5764 5759 5754 5748 5744 5740 5736 5733 5730 5727 5724 5723 5721 5720 5719 5716 5714 5712 5711 5709 5708 5707 5708 5708 5710 5711 5711 5713 5714 5714 5715 5716 5717 5719 5721 5724 5728 5727 5729 5728 5732 5732 5741
5780 5776 5773 5768 5764 5759 5756 5751 5746 5742 5739 5735 5732 5729 5726 5724 5722 5721 5718 5715 5713 5710 5708 5706 5704 5703 5702 5702 5703 5704 5705 5707 5708 5708 5708 5709 5709 5709 5710 5712 5714 5715 5716 5715 5716 5721 5726
5779 5776 5773 5769 5764 5760 5757 5752 5747 5743 5740 5736 5733 5730 5728 5726 5723 5720 5718 5715 5713 5710 5707 5705 5703 5701 5700 5699 5700 5699 5701 5703 5702 5701 5701 5701 5700 5701 5701 5701 5702 5703 5703 5701 5700 5704 5710
5777 5774 5772 5769 5763 5760 5757 5754 5749 5745 5741 5738 5734 5731 5729 5726 5724 5723 5720 5716 5713 5711 5708 5706 5704 5702 5699 5698 5698 5697 5698 5698 5697 5696 5695 5694 5693 5693 5691 5690 5692 5694 5693 5689 5688 5696 5693
5775 5773 5771 5768 5764 5760 5758 5755 5750 5747 5743 5739 5737 5734 5731 5728 5726 5724 5721 5717 5714 5713 5711 5708 5706 5703 5700 5698 5697 5696 5696 5695 5693 5691 5689 5688 5687 5687 5686 5683 5683 5683 5682 5680 5678 5677 5677
5771 5771 5769 5767 5763 5759 5758 5755 5751 5747 5743 5740 5738 5736 5733 5730 5728 5724 5721 5719 5717 5714 5713 5709 5707 5704 5701 5698 5696 5694 5693 5693 5691 5690 5687 5685 5683 5681 5680 5677 5674 5671 5670 5668 5667 5666 5664